Weather History for Corpus Christi, TX

Change the Weather History Date:

Saturday, September 28, 2013

  Actual Average Record
Temperature  
Mean Temperature 88 °F 78 °F  
Max Temperature 95 °F 88 °F 101 °F (2005)
Min Temperature 81 °F 69 °F 53 °F (1908)
Degree Days  
Heating Degree Days 0 0  
Month to date heating degree days 0 0  
Since 1 July heating degree days 0 0  
Cooling Degree Days 23 14  
Month to date cooling degree days 543 456  
Year to date cooling degree days 3556 3017  
Growing Degree Days 38 (Base 50)    
Moisture  
Dew Point 76 °F    
Average Humidity 71    
Maximum Humidity 88    
Minimum Humidity 53    
Precipitation  
Precipitation T in 0.15 in 2.78 in (1889)
Month to date precipitation 6.14 4.70  
Year to date precipitation 17.15 24.04  
Snow  
Snow 0.00 in - - ()
Month to date snowfall 0.0  
Since 1 July snowfall 0.0  
Since 1 September snowfall 0.0  
Snow Depth 0.00 in    
Sea Level Pressure  
Sea Level Pressure 29.89 in    
Wind  
Wind Speed 14 mph (SE)    
Max Wind Speed 24 mph    
Max Gust Speed 32 mph    
Visibility 10 miles    
Events      
T = Trace of Precipitation, MM = Missing Value Source: NWS Daily Summary

Daily Weather History Graph

Daily Weather History Graph

Search for Another Location

Airport:

Trip Planner

Search our weather history database for the weather conditions in past years. The results will help you decide how hot, cold, wet, or windy it might be!

Date:

Astronomy

Sep. 28, 2013 Rise Set
Actual Time 7:21 AM CDT 7:19 PM CDT
Civil Twilight 6:58 AM CDT 7:42 PM CDT
Nautical Twilight 6:30 AM CDT 8:09 PM CDT
Astronomical Twilight 6:03 AM CDT 8:36 PM CDT
Moon 1:36 AM CDT (9/28) 3:14 PM CDT (9/28)
Length of Visible Light 12h 44m
Length of Day
11h 57m
Waning Crescent, 36% of the Moon is Illuminated
Sep 28
Waning Crescent
Oct 4
New
Oct 11
First Quarter
Oct 18
Full
Oct 26
Last Quarter

Hourly Weather History & Observations

Time (CDT) Temp. Heat Index Dew Point Humidity Pressure Visibility Wind Dir Wind Speed Gust Speed Precip Events Conditions
12:51 AM 84.0 °F 93.7 °F 77.0 °F 79% 29.87 in 10.0 mi SE 12.7 mph - N/A   Partly Cloudy
1:51 AM 84.0 °F 94.8 °F 78.1 °F 82% 29.86 in 10.0 mi SSE 12.7 mph - N/A   Mostly Cloudy
1:59 AM 84.2 °F 96.1 °F 78.8 °F 84% 29.86 in 10.0 mi SSE 10.4 mph - N/A   Scattered Clouds
2:51 AM 82.9 °F 91.8 °F 77.0 °F 82% 29.86 in 10.0 mi SSE 11.5 mph - N/A   Partly Cloudy
3:51 AM 82.9 °F 92.8 °F 78.1 °F 85% 29.86 in 10.0 mi SSE 11.5 mph - N/A   Scattered Clouds
4:51 AM 82.9 °F 91.8 °F 77.0 °F 82% 29.86 in 10.0 mi South 9.2 mph - 0.00 in   Mostly Cloudy
5:51 AM 82.9 °F 92.8 °F 78.1 °F 85% 29.87 in 10.0 mi SSE 9.2 mph - N/A   Partly Cloudy
6:51 AM 80.6 °F 86.6 °F 75.9 °F 86% 29.88 in 10.0 mi SSE 8.1 mph - N/A   Partly Cloudy
7:51 AM 81.0 °F 87.3 °F 75.9 °F 85% 29.89 in 10.0 mi SE 5.8 mph - N/A   Scattered Clouds
8:51 AM 84.9 °F 96.6 °F 78.1 °F 80% 29.91 in 10.0 mi SSE 11.5 mph - N/A   Scattered Clouds
9:51 AM 88.0 °F 98.5 °F 75.9 °F 67% 29.91 in 10.0 mi SSE 15.0 mph 25.3 mph N/A   Scattered Clouds
10:51 AM 91.0 °F 104.2 °F 77.0 °F 63% 29.92 in 10.0 mi SSE 17.3 mph 21.9 mph N/A   Scattered Clouds
11:51 AM 93.0 °F 105.3 °F 75.9 °F 57% 29.92 in 10.0 mi SSE 18.4 mph 23.0 mph N/A   Scattered Clouds
12:51 PM 93.0 °F 104.6 °F 75.0 °F 56% 29.92 in 10.0 mi SSE 16.1 mph 25.3 mph N/A   Mostly Cloudy
1:51 PM 93.9 °F 105.4 °F 75.0 °F 54% 29.90 in 10.0 mi SSE 19.6 mph 25.3 mph N/A   Mostly Cloudy
2:51 PM 95.0 °F 106.7 °F 75.0 °F 52% 29.88 in 10.0 mi SSE 17.3 mph 32.2 mph N/A   Scattered Clouds
3:51 PM 93.0 °F 104.6 °F 75.0 °F 56% 29.85 in 10.0 mi SE 20.7 mph 25.3 mph N/A   Scattered Clouds
4:51 PM 91.9 °F 103.9 °F 75.9 °F 59% 29.85 in 10.0 mi SE 17.3 mph 25.3 mph N/A   Scattered Clouds
5:51 PM 90.0 °F 101.3 °F 75.9 °F 63% 29.85 in 10.0 mi SE 20.7 mph - N/A   Scattered Clouds
6:51 PM 87.1 °F 96.3 °F 75.0 °F 67% 29.86 in 10.0 mi SE 20.7 mph - N/A   Partly Cloudy
7:51 PM 84.9 °F 93.3 °F 75.0 °F 72% 29.89 in 10.0 mi SE 12.7 mph - N/A   Partly Cloudy
8:51 PM 84.0 °F 92.6 °F 75.9 °F 76% 29.91 in 10.0 mi SE 15.0 mph - N/A   Partly Cloudy
9:51 PM 84.0 °F 92.6 °F 75.9 °F 76% 29.93 in 10.0 mi SE 12.7 mph - N/A   Partly Cloudy
10:51 PM 82.9 °F 90.2 °F 75.0 °F 77% 29.94 in 10.0 mi SE 8.1 mph - N/A   Partly Cloudy
11:51 PM 81.0 °F 87.3 °F 75.9 °F 85% 29.94 in 10.0 mi SSE 10.4 mph - N/A   Partly Cloudy